| time (UTC) | temp F | wind direction | speed knots | gust knots | rain 1hr in | rain 24hr in | rain mn in | humidity % | barometer mb |
| 20260504050331 | 46 | 223 | 1.7 | 5.2 | 0.00 | 0.00 | 0.00 | 63 | 1016.3 |
| 20260504045817 | 46 | 226 | 0.9 | 6.1 | 0.00 | 0.00 | 0.00 | 62 | 1016.4 |
| 20260504045325 | 46 | 234 | 4.3 | 6.1 | 0.00 | 0.00 | 0.00 | 62 | 1016.4 |
| 20260504044752 | 46 | 207 | 0.0 | 0.9 | 0.00 | 0.00 | 0.00 | 61 | 1016.4 |
| 20260504043809 | 47 | 199 | 0.0 | 0.0 | 0.00 | 0.00 | 0.00 | 61 | 1016.2 |
| 20260504042822 | 47 | 221 | 0.0 | 0.0 | 0.00 | 0.00 | 0.00 | 60 | 1016.3 |
| 20260504042330 | 47 | 215 | 0.0 | 0.0 | 0.00 | 0.00 | 0.00 | 60 | 1016.2 |
| 20260504041757 | 47 | 215 | 0.0 | 4.3 | 0.00 | 0.00 | 0.00 | 59 | 1016.2 |
| 20260504040831 | 47 | 215 | 1.7 | 5.2 | 0.00 | 0.00 | 0.00 | 59 | 1016.2 |
| 20260504040256 | 47 | 232 | 0.0 | 0.0 | 0.00 | 0.00 | 0.00 | 58 | 1016.1 |
| 20260504035331 | 48 | 232 | 0.0 | 0.0 | 0.00 | 0.00 | 0.00 | 57 | 1016.1 |
| 20260504034820 | 48 | 232 | 0.0 | 0.0 | 0.00 | 0.00 | 0.00 | 56 | 1016.0 |
| 20260504034329 | 49 | 232 | 0.0 | 0.0 | 0.00 | 0.00 | 0.00 | 56 | 1016.0 |
| 20260504033834 | 49 | 232 | 0.0 | 0.0 | 0.00 | 0.00 | 0.00 | 53 | 1016.0 |
| 20260504033322 | 49 | 232 | 0.0 | 0.0 | 0.00 | 0.00 | 0.00 | 53 | 1015.9 |
| 20260504032827 | 49 | 232 | 0.0 | 2.6 | 0.00 | 0.00 | 0.00 | 53 | 1016.0 |
| 20260504032336 | 49 | 231 | 0.0 | 2.6 | 0.00 | 0.00 | 0.00 | 52 | 1015.9 |
| 20260504031821 | 50 | 228 | 0.0 | 3.5 | 0.00 | 0.00 | 0.00 | 52 | 1015.9 |
| 20260504031330 | 50 | 228 | 0.0 | 3.5 | 0.00 | 0.00 | 0.00 | 52 | 1015.9 |
| 20260504030835 | 50 | 229 | 0.9 | 2.6 | 0.00 | 0.00 | 0.00 | 52 | 1015.9 |
| 20260504030323 | 50 | 229 | 0.0 | 0.0 | 0.00 | 0.00 | 0.00 | 52 | 1015.8 |
| 20260504025832 | 50 | 226 | 0.0 | 0.0 | 0.00 | 0.00 | 0.00 | 51 | 1015.8 |
| 20260504025320 | 50 | 226 | 0.0 | 0.0 | 0.00 | 0.00 | 0.00 | 50 | 1015.7 |
| 20260504024825 | 50 | 224 | 0.0 | 0.0 | 0.00 | 0.00 | 0.00 | 50 | 1015.7 |
| 20260504024334 | 50 | 224 | 0.0 | 3.5 | 0.00 | 0.00 | 0.00 | 49 | 1015.7 |
| 20260504023820 | 51 | 220 | 1.7 | 3.5 | 0.00 | 0.00 | 0.00 | 50 | 1015.7 |
| 20260504023306 | 51 | 218 | 0.0 | 1.7 | 0.00 | 0.00 | 0.00 | 49 | 1015.5 |
| 20260504022320 | 51 | 218 | 0.0 | 2.6 | 0.00 | 0.00 | 0.00 | 47 | 1015.5 |
| 20260504021826 | 51 | 218 | 0.0 | 2.6 | 0.00 | 0.00 | 0.00 | 47 | 1015.5 |
| 20260504021318 | 52 | 218 | 0.0 | 2.6 | 0.00 | 0.00 | 0.00 | 48 | 1015.6 |
| 20260504020805 | 53 | 270 | 0.0 | 2.6 | 0.00 | 0.00 | 0.00 | 48 | 1015.5 |
| 20260504015817 | 54 | 270 | 0.9 | 2.6 | 0.00 | 0.00 | 0.00 | 44 | 1015.4 |
| 20260504015325 | 54 | 270 | 0.0 | 0.0 | 0.00 | 0.00 | 0.00 | 46 | 1015.4 |
| 20260504014831 | 54 | 270 | 0.0 | 0.0 | 0.00 | 0.00 | 0.00 | 46 | 1015.4 |
| 20260504014319 | 54 | 265 | 0.0 | 0.0 | 0.00 | 0.00 | 0.00 | 42 | 1015.5 |
| 20260504013805 | 54 | 262 | 0.0 | 3.5 | 0.00 | 0.00 | 0.00 | 41 | 1015.4 |
| 20260504012818 | 54 | 273 | 0.9 | 3.5 | 0.00 | 0.00 | 0.00 | 41 | 1015.2 |
| 20260504012330 | 54 | 269 | 0.0 | 0.0 | 0.00 | 0.00 | 0.00 | 42 | 1015.3 |
| 20260504011756 | 54 | 266 | 0.0 | 2.6 | 0.00 | 0.00 | 0.00 | 42 | 1015.2 |
| 20260504011323 | 54 | 266 | 0.0 | 2.6 | 0.00 | 0.00 | 0.00 | 42 | 1015.2 |
| 20260504010828 | 55 | 266 | 0.0 | 2.6 | 0.00 | 0.00 | 0.00 | 41 | 1015.2 |
| 20260504010337 | 55 | 271 | 0.0 | 0.0 | 0.00 | 0.00 | 0.00 | 42 | 1015.2 |
| 20260504005822 | 55 | 260 | 0.0 | 0.0 | 0.00 | 0.00 | 0.00 | 42 | 1015.2 |
| 20260504005330 | 55 | 258 | 0.0 | 1.7 | 0.00 | 0.00 | 0.00 | 41 | 1015.2 |
| 20260504004836 | 56 | 258 | 0.0 | 6.1 | 0.00 | 0.00 | 0.00 | 41 | 1015.1 |
| 20260504004324 | 56 | 253 | 1.7 | 6.1 | 0.00 | 0.00 | 0.00 | 39 | 1015.0 |
| 20260504003830 | 56 | 262 | 0.0 | 0.0 | 0.00 | 0.00 | 0.00 | 38 | 1015.0 |
| 20260504003322 | 56 | 260 | 0.0 | 3.5 | 0.00 | 0.00 | 0.00 | 38 | 1015.0 |
| 20260504002830 | 57 | 265 | 0.0 | 5.2 | 0.00 | 0.00 | 0.00 | 38 | 1015.0 |
| 20260504002337 | 57 | 271 | 1.7 | 3.5 | 0.00 | 0.00 | 0.00 | 40 | 1014.9 |
| 20260504001822 | 57 | 271 | 0.0 | 0.9 | 0.00 | 0.00 | 0.00 | 40 | 1014.9 |
| 20260504001330 | 58 | 271 | 0.0 | 6.1 | 0.00 | 0.00 | 0.00 | 38 | 1014.9 |
| 20260504000816 | 58 | 260 | 0.0 | 6.1 | 0.00 | 0.00 | 0.00 | 37 | 1014.9 |
| 20260504000324 | 58 | 281 | 0.0 | 0.9 | 0.00 | 0.00 | 0.00 | 36 | 1014.9 |
| 20260503235751 | 59 | 278 | 0.0 | 6.1 | 0.00 | 0.00 | 0.00 | 36 | 1014.8 |
| 20260503234808 | 60 | 284 | 2.6 | 7.8 | 0.00 | 0.00 | 0.00 | 35 | 1014.7 |
| 20260503233822 | 60 | 302 | 2.6 | 7.8 | 0.00 | 0.00 | 0.00 | 34 | 1014.7 |
| 20260503233308 | 60 | 302 | 3.5 | 9.6 | 0.00 | 0.00 | 0.00 | 34 | 1014.6 |
| 20260503232835 | 60 | 302 | 3.5 | 9.6 | 0.00 | 0.00 | 0.00 | 34 | 1014.6 |
| 20260503232301 | 61 | 273 | 1.7 | 8.7 | 0.00 | 0.00 | 0.00 | 33 | 1014.5 |
| 20260503231335 | 61 | 307 | 2.6 | 12.2 | 0.00 | 0.00 | 0.00 | 33 | 1014.5 |
| 20260503230821 | 61 | 331 | 7.8 | 12.2 | 0.00 | 0.00 | 0.00 | 31 | 1014.4 |
| 20260503230328 | 62 | 327 | 5.2 | 11.3 | 0.00 | 0.00 | 0.00 | 32 | 1014.4 |
| 20260503225818 | 62 | 302 | 7.8 | 12.2 | 0.00 | 0.00 | 0.00 | 32 | 1014.4 |
| 20260503225326 | 62 | 321 | 7.8 | 12.2 | 0.00 | 0.00 | 0.00 | 31 | 1014.3 |
| 20260503224832 | 62 | 282 | 4.3 | 12.2 | 0.00 | 0.00 | 0.00 | 31 | 1014.3 |
| 20260503224320 | 62 | 296 | 7.8 | 11.3 | 0.00 | 0.00 | 0.00 | 32 | 1014.3 |
| 20260503223826 | 62 | 254 | 7.0 | 12.2 | 0.00 | 0.00 | 0.00 | 32 | 1014.3 |
| 20260503223334 | 62 | 314 | 8.7 | 12.2 | 0.00 | 0.00 | 0.00 | 32 | 1014.3 |
| 20260503222821 | 62 | 287 | 7.0 | 15.6 | 0.00 | 0.00 | 0.00 | 31 | 1014.4 |
| 20260503222307 | 63 | 258 | 7.0 | 14.8 | 0.00 | 0.00 | 0.00 | 32 | 1014.4 |
| 20260503221305 | 63 | 276 | 7.0 | 13.0 | 0.00 | 0.00 | 0.00 | 33 | 1014.5 |
| 20260503220319 | 64 | 288 | 6.1 | 9.6 | 0.00 | 0.00 | 0.00 | 32 | 1014.6 |
| 20260503215825 | 64 | 321 | 4.3 | 13.9 | 0.00 | 0.00 | 0.00 | 32 | 1014.6 |
| 20260503215333 | 64 | 313 | 9.6 | 13.9 | 0.00 | 0.00 | 0.00 | 31 | 1014.6 |
| 20260503214800 | 65 | 336 | 6.1 | 9.6 | 0.00 | 0.00 | 0.00 | 30 | 1014.6 |
| 20260503213833 | 64 | 286 | 3.5 | 7.8 | 0.00 | 0.00 | 0.00 | 34 | 1014.5 |
| 20260503213300 | 64 | 303 | 1.7 | 10.4 | 0.00 | 0.00 | 0.00 | 31 | 1014.7 |
| 20260503212318 | 64 | 306 | 6.1 | 10.4 | 0.00 | 0.00 | 0.00 | 31 | 1014.7 |
| 20260503211825 | 64 | 5 | 6.1 | 10.4 | 0.00 | 0.00 | 0.00 | 31 | 1014.7 |
| 20260503211250 | 64 | 290 | 7.8 | 13.9 | 0.00 | 0.00 | 0.00 | 32 | 1014.6 |
| 20260503210817 | 64 | 290 | 7.8 | 13.9 | 0.00 | 0.00 | 0.00 | 32 | 1014.6 |
| 20260503210326 | 64 | 275 | 10.4 | 14.8 | 0.00 | 0.00 | 0.00 | 31 | 1014.6 |
| 20260503205831 | 64 | 355 | 7.0 | 15.6 | 0.00 | 0.00 | 0.00 | 34 | 1014.6 |
| 20260503205319 | 64 | 286 | 8.7 | 15.6 | 0.00 | 0.00 | 0.00 | 31 | 1014.6 |
| 20260503204824 | 64 | 321 | 7.8 | 13.9 | 0.00 | 0.00 | 0.00 | 31 | 1014.7 |
| 20260503204333 | 64 | 188 | 2.6 | 13.9 | 0.00 | 0.00 | 0.00 | 32 | 1014.7 |
| 20260503203821 | 64 | 318 | 7.0 | 11.3 | 0.00 | 0.00 | 0.00 | 32 | 1014.7 |
| 20260503203330 | 64 | 283 | 7.8 | 13.0 | 0.00 | 0.00 | 0.00 | 31 | 1014.7 |
| 20260503202837 | 65 | 269 | 7.0 | 13.0 | 0.00 | 0.00 | 0.00 | 30 | 1014.8 |
| 20260503202304 | 64 | 294 | 2.6 | 14.8 | 0.00 | 0.00 | 0.00 | 31 | 1014.7 |
| 20260503201318 | 64 | 295 | 7.8 | 14.8 | 0.00 | 0.00 | 0.00 | 32 | 1014.9 |
| 20260503200823 | 65 | 271 | 6.1 | 12.2 | 0.00 | 0.00 | 0.00 | 32 | 1015.0 |
| 20260503200332 | 65 | 344 | 6.1 | 11.3 | 0.00 | 0.00 | 0.00 | 35 | 1015.1 |
| 20260503195817 | 64 | 282 | 2.6 | 11.3 | 0.00 | 0.00 | 0.00 | 35 | 1015.1 |
| 20260503195325 | 64 | 325 | 5.2 | 14.8 | 0.00 | 0.00 | 0.00 | 31 | 1015.2 |
| 20260503194835 | 64 | 311 | 6.1 | 14.8 | 0.00 | 0.00 | 0.00 | 34 | 1015.3 |
| 20260503194323 | 64 | 10 | 3.5 | 14.8 | 0.00 | 0.00 | 0.00 | 35 | 1015.3 |
| 20260503193828 | 63 | 9 | 7.8 | 14.8 | 0.00 | 0.00 | 0.00 | 32 | 1015.4 |
| 20260503193336 | 63 | 306 | 7.8 | 12.2 | 0.00 | 0.00 | 0.00 | 32 | 1015.5 |
| 20260503192821 | 63 | 325 | 4.3 | 13.0 | 0.00 | 0.00 | 0.00 | 34 | 1015.6 |
| 20260503192329 | 63 | 289 | 7.0 | 13.0 | 0.00 | 0.00 | 0.00 | 38 | 1015.6 |
| 20260503191835 | 63 | 337 | 3.5 | 17.4 | 0.00 | 0.00 | 0.00 | 36 | 1015.9 |
| 20260503191323 | 62 | 271 | 7.8 | 18.2 | 0.00 | 0.00 | 0.00 | 34 | 1015.8 |
| 20260503190829 | 63 | 290 | 11.3 | 18.2 | 0.00 | 0.00 | 0.00 | 32 | 1016.0 |
| 20260503190321 | 63 | 321 | 6.1 | 14.8 | 0.00 | 0.00 | 0.00 | 37 | 1016.0 |
| 20260503185827 | 63 | 320 | 7.0 | 16.5 | 0.00 | 0.00 | 0.00 | 33 | 1016.0 |
| 20260503185335 | 63 | 298 | 8.7 | 16.5 | 0.00 | 0.00 | 0.00 | 33 | 1016.0 |
| 20260503184822 | 63 | 10 | 3.5 | 13.0 | 0.00 | 0.00 | 0.00 | 39 | 1016.0 |
| 20260503184329 | 62 | 355 | 7.0 | 13.0 | 0.00 | 0.00 | 0.00 | 36 | 1016.1 |
| 20260503183835 | 62 | 308 | 6.1 | 15.6 | 0.00 | 0.00 | 0.00 | 37 | 1016.1 |
| 20260503183322 | 61 | 324 | 6.1 | 15.6 | 0.00 | 0.00 | 0.00 | 36 | 1016.3 |
| 20260503182830 | 61 | 310 | 9.6 | 20.9 | 0.00 | 0.00 | 0.00 | 36 | 1016.3 |
| 20260503182256 | 61 | 195 | 9.6 | 15.6 | 0.00 | 0.00 | 0.00 | 39 | 1016.4 |
| 20260503181252 | 61 | 308 | 8.7 | 16.5 | 0.00 | 0.00 | 0.00 | 37 | 1016.5 |
| 20260503180327 | 60 | 320 | 8.7 | 15.6 | 0.00 | 0.00 | 0.00 | 41 | 1016.5 |
| 20260503175832 | 60 | 13 | 9.6 | 20.0 | 0.00 | 0.00 | 0.00 | 37 | 1016.5 |
| 20260503175320 | 60 | 311 | 11.3 | 20.0 | 0.00 | 0.00 | 0.00 | 37 | 1016.6 |
| 20260503174806 | 60 | 13 | 5.2 | 15.6 | 0.00 | 0.00 | 0.00 | 42 | 1016.6 |
| 20260503173819 | 59 | 334 | 7.0 | 15.6 | 0.00 | 0.00 | 0.00 | 42 | 1016.7 |
| 20260503173327 | 59 | 300 | 6.1 | 15.6 | 0.00 | 0.00 | 0.00 | 40 | 1016.7 |
| 20260503172758 | 59 | 318 | 4.3 | 14.8 | 0.00 | 0.00 | 0.00 | 47 | 1016.7 |
| 20260503171830 | 58 | 302 | 8.7 | 18.2 | 0.00 | 0.00 | 0.00 | 41 | 1016.9 |
| 20260503171318 | 59 | 308 | 8.7 | 14.8 | 0.00 | 0.00 | 0.00 | 42 | 1016.8 |
| 20260503170805 | 57 | 331 | 6.1 | 13.9 | 0.00 | 0.00 | 0.00 | 44 | 1017.0 |
| 20260503170332 | 57 | 331 | 6.1 | 13.9 | 0.00 | 0.00 | 0.00 | 44 | 1017.0 |
| 20260503150818 | 52 | 310 | 7.0 | 14.8 | 0.00 | 0.00 | 0.00 | 49 | 1017.9 |
| 20260503150331 | 52 | 285 | 7.8 | 17.4 | 0.00 | 0.00 | 0.00 | 50 | 1017.9 |
| 20260503131328 | 49 | 338 | 6.1 | 13.0 | 0.00 | 0.00 | 0.00 | 55 | 1018.3 |
| 20260503130834 | 49 | 32 | 4.3 | 12.2 | 0.00 | 0.00 | 0.00 | 57 | 1018.3 |
| 20260503130321 | 48 | 350 | 3.5 | 12.2 | 0.00 | 0.00 | 0.00 | 56 | 1018.3 |
| 20260503110824 | 41 | 339 | 0.9 | 13.9 | 0.00 | 0.00 | 0.00 | 66 | 1017.3 |
| 20260503110336 | 41 | 342 | 8.7 | 14.8 | 0.00 | 0.00 | 0.00 | 66 | 1017.2 |
| 20260503090304 | 42 | 338 | 1.7 | 10.4 | 0.00 | 0.00 | 0.00 | 68 | 1015.9 |
| 20260503081338 | 43 | 338 | 8.7 | 15.6 | 0.00 | 0.00 | 0.00 | 66 | 1015.6 |
| 20260503080824 | 43 | 304 | 9.6 | 15.6 | 0.00 | 0.00 | 0.00 | 66 | 1015.5 |
| 20260503080332 | 43 | 311 | 5.2 | 14.8 | 0.00 | 0.00 | 0.00 | 67 | 1015.6 |
| 20260503072804 | 43 | 351 | 6.1 | 17.4 | 0.00 | 0.00 | 0.00 | 68 | 1015.3 |
| 20260503071817 | 43 | 322 | 9.6 | 17.4 | 0.00 | 0.00 | 0.00 | 68 | 1015.2 |
| 20260503071325 | 43 | 313 | 7.0 | 12.2 | 0.00 | 0.00 | 0.00 | 69 | 1015.2 |
| 20260503070831 | 43 | 303 | 5.2 | 12.2 | 0.00 | 0.00 | 0.00 | 70 | 1015.2 |
| 20260503070322 | 43 | 306 | 5.2 | 9.6 | 0.00 | 0.00 | 0.00 | 70 | 1015.1 |